Glennallen, AK

5:43 PM AKST on February 23, 2017 (GMT -0900)
Gulkana

Weather History for PAGK - May, 2013

Change the Weather History Date:

Saturday, May 25, 2013

  Actual Average Record
Temperature  
Mean Temperature 50 °F -  
Max Temperature 69 °F 59 °F 80 °F (1960)
Min Temperature 32 °F 35 °F 27 °F (2000)
Degree Days  
Heating Degree Days 14    
Moisture  
Dew Point 30 °F    
Average Humidity 46    
Maximum Humidity 92    
Minimum Humidity 12    
Precipitation  
Precipitation 0.00 in - - ()
Sea Level Pressure  
Sea Level Pressure 29.95 in    
Wind  
Wind Speed 4 mph (South)    
Max Wind Speed 15 mph    
Max Gust Speed 23 mph    
Visibility 10 miles    
Events      
Averages and records for this station are not official NWS values.
T = Trace of Precipitation, MM = Missing Value Source: NWS Daily Summary

Daily Weather History Graph

Daily Weather History Graph

Search for Another Location

Airport or City:

Trip Planner

Search our weather history database for the weather conditions in past years. The results will help you decide how hot, cold, wet, or windy it might be!

Date:

Astronomy

May. 25, 2013 Rise Set
Actual Time 4:20 AM AKDT 10:58 PM AKDT
Civil Twilight 2:37 AM AKDT 12:45 AM AKDT
Nautical Twilight Sun does not rise Sun does not rise
Astronomical Twilight Sun does not rise Sun does not rise
Moon 11:47 PM AKDT (5/25) 5:06 AM AKDT (5/25)
Length of Visible Light 22h 07m
Length of Day
18h 38m
Full, 99% of the Moon is Illuminated
May 25
Full
May 31
Last Quarter
Jun 8
New
Jun 16
First Quarter
Jun 23
Full

Hourly Weather History & Observations

Time (AKDT) Temp. Windchill Dew Point Humidity Pressure Visibility Wind Dir Wind Speed Gust Speed Precip Events Conditions
12:53 AM 39.9 °F - 34.0 °F 79% 29.98 in 10.0 mi Calm Calm - N/A   Clear
1:53 AM 39.0 °F - 34.0 °F 82% 29.99 in 10.0 mi Calm Calm - N/A   Clear
2:53 AM 36.0 °F - 30.9 °F 82% 30.01 in 10.0 mi Calm Calm - N/A   Clear
3:53 AM 37.0 °F 34.5 °F 28.9 °F 73% 30.00 in 10.0 mi West 3.5 mph - N/A   Clear
4:53 AM 32.0 °F - 30.0 °F 92% 30.02 in 10.0 mi Calm Calm - N/A   Clear
5:53 AM 36.0 °F - 32.0 °F 86% 30.01 in 10.0 mi Calm Calm - N/A   Clear
6:02 AM 37.0 °F - 32.0 °F 82% 29.99 in 10.0 mi Calm Calm - N/A   Scattered Clouds
6:53 AM 42.1 °F - 30.9 °F 65% 30.00 in 10.0 mi Calm Calm - N/A   Scattered Clouds
7:53 AM 45.0 °F - 32.0 °F 60% 30.00 in 10.0 mi Calm Calm - N/A   Scattered Clouds
8:53 AM 50.0 °F - 30.9 °F 48% 29.99 in 10.0 mi Calm Calm - N/A   Scattered Clouds
9:53 AM 54.0 °F - 30.9 °F 41% 29.98 in 10.0 mi Variable 3.5 mph - N/A   Partly Cloudy
10:53 AM 57.9 °F - 32.0 °F 37% 29.97 in 10.0 mi Variable 6.9 mph - N/A   Partly Cloudy
11:53 AM 61.0 °F - 32.0 °F 34% 29.96 in 10.0 mi SSE 9.2 mph - N/A   Scattered Clouds
12:53 PM 64.0 °F - 27.0 °F 25% 29.95 in 10.0 mi SE 10.4 mph - N/A   Scattered Clouds
1:53 PM 66.0 °F - 27.0 °F 23% 29.94 in 10.0 mi South 11.5 mph 17.3 mph N/A   Scattered Clouds
2:53 PM 68.0 °F - 28.0 °F 22% 29.92 in 10.0 mi SSE 15.0 mph 19.6 mph N/A   Partly Cloudy
3:53 PM 68.0 °F - 27.0 °F 21% 29.92 in 10.0 mi SSE 12.7 mph 21.9 mph N/A   Scattered Clouds
4:53 PM 66.0 °F - 28.9 °F 25% 29.92 in 10.0 mi SW 13.8 mph 21.9 mph N/A   Scattered Clouds
5:53 PM 66.0 °F - 28.0 °F 24% 29.91 in 10.0 mi SW 12.7 mph 23.0 mph N/A   Partly Cloudy
6:53 PM 64.9 °F - 30.9 °F 28% 29.89 in 10.0 mi SSW 9.2 mph 18.4 mph N/A   Partly Cloudy
7:53 PM 63.0 °F - 30.0 °F 29% 29.89 in 10.0 mi SSW 10.4 mph - N/A   Partly Cloudy
8:53 PM 61.0 °F - 28.9 °F 30% 29.88 in 10.0 mi SSW 10.4 mph - N/A   Partly Cloudy
9:24 PM 60.1 °F - 28.0 °F 30% 29.88 in 10.0 mi South 9.2 mph - N/A   Partly Cloudy
9:53 PM 57.9 °F - 30.9 °F 36% 29.89 in 10.0 mi South 4.6 mph - N/A   Clear
10:53 PM 55.0 °F - 32.0 °F 42% 29.89 in 10.0 mi SSW 4.6 mph - N/A   Clear
11:53 PM 46.0 °F - 34.0 °F 63% 29.90 in 10.0 mi Calm Calm - N/A   Clear